TimeCST,TemperatureF,Dew PointF,Humidity,Sea Level PressureIn,VisibilityMPH,Wind Direction,Wind SpeedMPH,Gust SpeedMPH,PrecipitationIn,Events,Conditions,WindDirDegrees,DateUTC
12:53 AM,21.9,12.0,66,30.32,10.0,NNW,8.1,-,N/A,,Clear,330,2014-01-29 06:53:00
1:53 AM,21.9,10.9,63,30.34,10.0,NNW,8.1,-,N/A,,Clear,340,2014-01-29 07:53:00
2:53 AM,21.0,9.0,60,30.33,10.0,NNW,12.7,19.6,N/A,,Clear,340,2014-01-29 08:53:00
3:53 AM,19.9,8.1,60,30.34,10.0,NNW,8.1,-,N/A,,Clear,340,2014-01-29 09:53:00
4:53 AM,19.9,7.0,57,30.35,10.0,NNW,9.2,-,N/A,,Clear,340,2014-01-29 10:53:00
5:53 AM,19.0,6.1,57,30.38,10.0,NNW,8.1,-,N/A,,Clear,340,2014-01-29 11:53:00
6:53 AM,18.0,6.1,60,30.40,10.0,NNW,6.9,-,N/A,,Clear,330,2014-01-29 12:53:00
7:53 AM,19.0,5.0,54,30.42,10.0,North,9.2,-,N/A,,Clear,360,2014-01-29 13:53:00
8:53 AM,19.9,3.9,50,30.45,10.0,North,10.4,-,N/A,,Clear,360,2014-01-29 14:53:00
9:53 AM,21.9,5.0,48,30.44,10.0,North,11.5,-,N/A,,Clear,360,2014-01-29 15:53:00
10:53 AM,23.0,6.1,48,30.45,10.0,North,6.9,-,N/A,,Clear,350,2014-01-29 16:53:00
11:53 AM,25.0,3.9,41,30.44,10.0,NNW,10.4,-,N/A,,Clear,340,2014-01-29 17:53:00
12:53 PM,27.0,6.1,41,30.39,10.0,NNW,10.4,-,N/A,,Clear,340,2014-01-29 18:53:00
1:53 PM,30.0,7.0,38,30.39,10.0,NW,9.2,-,N/A,,Clear,320,2014-01-29 19:53:00
2:53 PM,32.0,7.0,35,30.37,10.0,NNW,6.9,-,N/A,,Clear,330,2014-01-29 20:53:00
3:53 PM,30.9,6.1,35,30.37,10.0,North,9.2,-,N/A,,Clear,350,2014-01-29 21:53:00
4:53 PM,30.0,1.9,30,30.36,10.0,NNW,8.1,-,N/A,,Clear,340,2014-01-29 22:53:00
5:53 PM,28.0,1.9,33,30.36,10.0,North,6.9,-,N/A,,Clear,350,2014-01-29 23:53:00
6:53 PM,26.1,3.0,37,30.38,10.0,NNW,3.5,-,N/A,,Clear,340,2014-01-30 00:53:00
7:53 PM,25.0,3.9,41,30.39,10.0,Calm,Calm,-,N/A,,Clear,0,2014-01-30 01:53:00
8:53 PM,19.0,6.1,57,30.38,10.0,Calm,Calm,-,N/A,,Clear,0,2014-01-30 02:53:00
9:53 PM,21.0,3.0,46,30.39,10.0,Calm,Calm,-,N/A,,Clear,0,2014-01-30 03:53:00
10:53 PM,19.9,5.0,52,30.39,10.0,Calm,Calm,-,N/A,,Clear,0,2014-01-30 04:53:00
11:53 PM,18.0,6.1,60,30.38,10.0,Calm,Calm,-,N/A,,Clear,0,2014-01-30 05:53:00